GFSGL_925_thetae_012.txt.gz
Theta_e
303 303 304 302 301 300 298 296 296 296 298 299 297 295 294 293 293 293 292 292 292 291 291 290 290 290 290 290 290 291 291 291 291 291 292 292 293 293 293 293 294 295 295
303 302 302 299 297 297 296 296 295 295 296 295 294 294 293 293 292 292 291 290 289 289 289 289 289 289 289 289 289 289 289 289 290 290 290 290 291 292 293 294 294 295 295
302 301 299 297 296 295 295 295 295 295 294 293 293 293 293 292 291 290 289 289 288 288 288 288 288 288 288 288 289 288 288 289 289 289 289 289 290 290 291 291 292 293 294
299 297 296 296 295 295 295 295 295 294 293 293 292 292 291 290 289 288 288 288 288 287 287 287 286 286 286 286 286 286 286 286 286 287 287 288 288 288 289 290 291 291 292
300 297 296 297 296 295 294 294 295 296 293 292 291 290 289 288 287 287 287 287 286 285 285 284 284 284 285 286 286 286 286 286 285 285 285 286 286 287 288 289 290 292 293
301 299 297 297 296 296 295 294 295 294 292 290 289 288 287 286 286 286 285 284 284 284 283 283 283 283 284 284 284 284 285 285 285 285 285 285 285 285 286 287 289 289 290
298 298 298 297 295 294 294 294 293 291 289 288 287 286 286 286 285 284 284 283 284 284 284 283 283 283 284 284 284 284 284 284 284 284 285 285 285 285 285 286 287 288 288
298 297 296 296 296 295 293 290 289 288 287 286 286 285 285 285 285 283 283 283 283 283 284 284 283 283 283 284 284 284 284 284 284 284 284 285 285 285 285 285 285 286 286
298 296 293 292 291 290 289 288 287 287 285 285 284 284 284 283 283 283 283 283 283 283 283 283 283 283 284 284 284 285 285 285 285 284 284 284 285 285 286 285 285 285 285
291 292 292 290 289 288 288 287 285 285 284 284 284 283 282 282 281 282 282 283 283 283 283 283 283 283 283 284 284 284 285 285 285 285 285 285 285 285 286 287 286 286 286
291 290 289 288 288 287 286 285 285 284 284 283 283 282 281 281 281 282 282 283 282 282 283 283 283 284 284 284 284 284 284 285 285 285 285 285 285 285 285 286 287 287 286
290 289 288 287 287 286 285 284 284 284 283 282 281 281 281 282 281 282 282 282 282 283 284 284 284 284 284 284 284 285 285 285 285 285 285 285 285 285 285 285 286 287 287
288 288 287 287 286 285 284 284 283 282 281 281 281 281 281 281 281 281 281 282 283 284 283 283 282 282 282 282 283 283 284 284 285 285 285 285 285 285 285 286 286 286 287
288 286 286 285 284 284 284 283 282 281 282 282 281 281 281 280 280 280 282 282 284 283 282 281 281 281 281 281 282 283 284 286 286 285 285 284 284 286 286 286 286 286 287
286 285 285 283 283 283 282 282 282 282 282 282 281 282 280 279 280 282 281 282 283 282 282 282 280 279 280 281 281 282 284 285 285 285 285 284 284 285 286 286 286 286 287
286 284 284 283 283 282 282 282 282 281 280 280 281 280 279 280 280 280 280 281 281 281 281 280 280 279 279 280 280 281 282 283 286 285 284 284 284 285 286 286 287 287 287
285 285 285 284 282 282 282 282 281 281 279 280 280 279 279 279 279 279 279 279 279 279 280 279 278 279 279 279 279 279 280 281 283 285 286 285 285 287 287 287 287 287 285
285 285 284 284 282 282 282 281 280 280 279 279 278 278 277 278 277 277 277 278 277 277 277 277 277 277 278 279 279 278 279 280 281 281 284 285 286 287 286 286 286 285 284
284 284 283 282 282 282 281 280 280 279 278 279 277 277 276 276 276 275 275 274 275 274 274 275 275 275 275 276 278 278 278 278 279 280 281 282 285 286 285 285 284 284 283
283 283 283 282 281 281 280 280 279 279 278 278 277 276 275 275 275 274 273 273 272 273 272 273 273 273 275 275 277 278 278 278 278 278 279 279 280 282 283 283 283 282 281
283 283 282 281 281 281 280 279 279 278 277 277 276 275 275 274 274 273 273 272 271 271 271 272 272 273 274 275 277 277 277 278 278 278 278 278 278 278 279 279 280 280 279
283 282 282 281 280 280 280 279 278 278 276 276 275 274 274 273 273 272 272 271 271 271 271 271 272 273 273 274 275 277 277 277 278 278 278 278 278 278 278 278 278 279 279
282 282 281 281 280 279 279 279 278 277 276 275 274 274 273 272 272 272 272 271 270 270 269 270 271 273 274 275 276 276 277 277 277 278 277 277 277 277 277 277 277 277 277
283 282 281 280 280 279 278 278 277 277 276 275 274 273 273 272 272 272 271 270 270 268 268 268 269 270 272 273 275 276 276 277 277 277 277 277 277 277 277 277 277 277 276
283 282 281 280 279 279 277 277 276 276 275 274 274 273 272 272 271 271 271 270 269 268 268 268 268 269 270 271 272 274 275 276 276 276 276 276 276 276 276 276 276 276 276
282 282 281 280 280 278 278 277 276 275 275 274 273 272 272 272 271 271 270 270 269 269 268 268 268 268 268 269 270 272 273 274 274 275 274 274 274 274 275 275 275 275 275

GFSGL_925_thetae_015.txt.gz
Theta_e
302 303 303 302 301 301 299 298 297 296 297 299 299 298 294 293 293 293 293 293 292 291 290 289 288 288 288 289 289 289 290 290 290 290 290 290 290 290 290 290 291 293 294
302 302 302 300 298 297 296 296 296 296 297 296 294 293 293 293 293 292 291 291 290 289 288 288 288 288 288 288 288 288 288 289 288 288 289 289 289 289 290 291 291 291 291
302 301 300 298 296 295 295 295 295 295 294 293 293 293 293 292 291 290 289 288 288 288 288 287 287 287 287 286 286 287 287 287 287 288 288 288 288 288 288 289 289 289 289
301 300 299 296 295 294 294 294 294 294 295 295 293 292 291 289 288 288 287 287 287 287 286 286 285 285 284 284 285 285 285 285 285 285 286 286 286 287 287 287 287 288 289
300 300 297 295 295 294 295 295 295 293 293 293 291 289 288 287 287 286 286 286 285 284 284 283 283 283 284 284 284 285 285 285 285 285 285 285 285 285 285 286 287 287 288
299 298 297 297 295 294 294 292 293 293 294 290 288 287 286 286 286 285 284 285 284 283 283 283 283 283 283 283 284 284 284 284 285 285 285 285 285 285 285 285 285 286 286
298 298 297 296 296 296 294 294 294 291 288 287 286 285 285 284 284 284 284 283 283 283 283 283 283 283 283 283 283 283 283 284 284 284 285 284 284 284 284 284 285 285 286
298 298 296 296 296 294 291 290 288 287 286 285 284 284 284 284 283 282 283 283 283 282 282 282 283 283 283 283 283 283 283 283 283 283 284 284 284 284 284 284 284 285 285
294 292 292 293 292 289 288 287 286 285 285 284 284 283 283 282 281 281 282 282 282 282 282 282 282 282 283 283 283 283 283 283 284 284 284 284 284 284 284 284 285 285 285
292 291 290 289 288 288 287 286 285 284 284 283 283 282 281 281 281 281 282 282 282 282 282 282 282 282 283 283 284 284 284 284 284 284 284 285 285 285 285 285 285 285 285
290 289 289 288 287 286 285 285 284 284 283 282 281 281 281 281 281 281 282 282 282 282 282 282 283 283 283 284 284 283 284 285 284 284 284 285 285 285 285 285 285 286 285
289 288 287 287 286 285 284 284 283 283 282 281 281 281 280 281 281 280 281 282 282 282 283 283 282 282 282 282 282 282 283 283 284 284 285 285 285 285 284 284 284 285 285
288 287 286 286 285 283 283 283 282 281 281 282 281 280 280 280 280 280 281 281 282 282 283 283 282 280 281 281 281 281 282 283 283 284 284 285 285 285 285 285 285 285 285
287 286 285 284 283 283 282 282 282 282 281 281 281 280 280 279 279 280 281 281 282 282 282 281 281 280 279 280 281 281 282 283 284 284 284 285 285 284 285 285 285 285 285
286 285 284 283 283 282 282 282 282 281 281 281 280 281 279 279 279 280 280 280 281 281 281 280 279 278 278 279 279 280 280 281 283 284 284 284 284 284 285 285 285 285 286
285 285 284 284 284 282 282 282 281 280 280 279 280 280 279 279 279 279 279 279 279 279 279 278 277 276 277 278 278 278 279 280 281 283 285 284 284 283 283 284 285 285 286
285 284 284 284 283 282 282 281 280 280 279 278 278 279 278 278 278 278 277 278 277 278 277 276 275 274 275 276 277 277 278 278 279 281 283 284 284 285 285 285 285 286 286
284 284 283 283 282 282 282 281 279 279 278 278 277 277 276 277 277 276 275 276 275 275 274 275 274 274 274 274 275 276 277 277 278 278 280 281 283 284 283 284 284 284 284
284 283 283 282 281 281 281 280 280 279 278 278 276 276 275 275 275 274 274 273 272 273 272 273 273 273 273 273 274 276 277 277 277 277 278 279 281 282 282 282 283 283 283
283 282 283 282 281 281 279 279 279 279 277 277 276 275 275 274 274 273 273 272 271 271 271 271 271 272 273 273 274 275 276 276 276 277 277 278 278 279 280 281 281 281 280
283 282 282 282 281 280 280 279 279 278 277 276 275 274 274 273 273 272 272 271 270 270 270 271 271 272 273 273 274 275 275 276 275 277 277 277 278 278 278 279 279 279 279
283 282 282 281 280 280 279 279 278 277 276 275 275 274 273 273 272 272 271 270 270 270 270 270 271 271 272 273 273 274 275 275 276 276 277 277 277 277 278 278 278 278 278
283 283 282 281 280 279 279 278 278 277 276 275 274 273 272 272 272 271 271 270 269 268 268 269 270 271 272 273 274 274 274 275 276 276 277 277 277 277 277 277 277 277 277
283 282 281 281 280 279 278 277 277 276 276 275 274 273 272 272 271 271 270 269 268 268 268 268 269 269 270 272 273 274 275 275 275 275 276 277 277 277 276 276 276 276 276
282 282 281 281 280 279 278 277 276 276 275 274 273 273 272 272 271 271 270 269 269 268 268 268 268 268 269 270 271 272 273 274 274 274 275 275 275 276 276 276 276 276 275
282 282 282 281 280 279 278 277 276 275 275 274 273 272 272 271 271 270 270 270 269 269 268 268 268 268 268 268 269 271 272 272 273 273 274 273 273 273 274 274 275 275 275

GFSGL_925_thetae_018.txt.gz
Theta_e
303 303 303 301 300 299 298 297 297 296 297 298 297 295 296 295 293 293 294 293 292 291 290 289 288 288 288 288 288 288 289 289 289 289 288 288 289 289 289 288 289 289 291
302 302 300 300 299 296 295 295 295 296 295 294 294 293 293 293 293 292 291 290 290 288 288 288 287 287 287 287 287 287 288 288 288 288 288 288 288 288 288 289 289 289 289
301 300 299 299 297 294 294 294 294 294 294 294 293 293 293 292 291 290 288 288 287 287 287 287 287 286 286 285 285 285 285 285 286 286 286 286 286 287 287 287 287 287 287
300 299 299 296 293 293 294 294 294 294 294 293 292 292 290 289 287 287 286 286 286 286 286 285 284 284 283 283 283 283 283 284 284 284 285 285 285 285 286 286 286 286 287
299 298 297 295 295 294 294 294 293 293 292 293 291 288 287 286 286 286 285 285 285 284 284 284 283 283 283 284 284 284 284 284 284 284 285 285 285 285 285 285 285 285 286
298 297 297 297 296 295 293 293 293 293 294 292 287 286 286 285 284 284 284 284 284 284 283 283 282 282 282 283 283 284 284 284 284 284 284 284 284 284 285 284 284 284 285
298 298 297 296 296 295 294 294 293 290 287 286 286 285 284 284 283 283 283 283 283 283 282 282 282 282 282 282 282 282 282 282 283 283 284 284 284 284 284 284 284 284 284
295 294 293 293 292 291 290 288 287 287 286 285 284 284 283 283 282 281 282 282 282 282 282 282 282 282 282 282 282 282 283 283 283 283 283 283 283 283 284 284 284 284 284
294 293 291 290 289 288 288 287 286 285 284 284 283 283 282 281 281 281 282 282 281 281 281 281 281 282 282 282 283 283 283 283 283 284 284 284 284 283 284 284 284 284 285
290 289 288 288 288 287 286 285 284 284 283 283 282 281 281 280 280 281 281 281 281 282 281 281 282 282 283 283 283 284 284 284 284 284 284 284 284 284 284 284 285 285 285
290 291 288 287 286 285 285 284 283 283 282 281 281 281 280 280 281 280 281 281 281 281 282 282 282 283 282 282 282 282 282 282 282 283 284 284 284 284 284 284 285 285 285
290 288 287 286 285 284 283 283 282 282 281 281 281 280 280 280 280 279 280 281 281 281 281 282 283 282 281 281 281 281 281 282 282 283 284 284 284 284 284 284 284 284 284
287 287 285 285 284 283 282 282 282 282 281 281 280 279 279 279 279 279 280 280 280 281 282 281 281 280 280 280 280 280 281 281 282 283 283 284 284 285 285 284 284 284 284
286 285 284 284 283 283 282 281 281 281 280 280 280 279 279 278 278 279 280 280 280 281 280 280 279 278 278 278 279 279 279 279 281 282 283 283 284 284 284 284 284 284 284
285 285 284 284 284 283 282 281 281 281 280 280 280 279 279 278 278 280 279 279 280 279 279 278 277 276 276 276 277 277 278 278 279 281 283 284 283 283 284 284 284 284 284
285 284 284 284 284 282 282 281 281 280 279 279 279 279 278 278 278 278 278 278 278 278 277 276 275 274 274 275 275 277 277 277 277 279 281 283 284 284 283 283 283 284 285
284 284 283 283 282 282 281 281 279 280 279 278 277 277 277 277 277 277 276 276 276 276 275 275 274 273 273 273 274 274 276 277 277 277 278 280 282 283 284 284 284 285 285
284 283 283 282 282 281 281 280 280 279 277 277 277 276 275 276 276 275 274 274 273 273 273 273 272 272 272 272 272 272 275 276 276 276 277 278 281 282 282 282 283 283 283
284 283 282 282 282 281 280 279 279 279 278 277 276 275 275 274 274 273 273 272 271 271 271 272 271 271 271 272 273 274 274 275 275 275 276 277 278 280 281 281 282 282 283
283 282 282 282 282 281 280 279 279 278 277 276 275 274 274 273 273 272 271 271 270 270 270 270 271 271 271 272 272 273 274 274 274 275 275 276 277 278 278 279 279 279 279
283 283 283 282 281 280 280 279 278 278 277 276 275 274 273 272 272 272 271 270 269 269 269 270 270 271 272 272 273 273 273 273 274 274 275 276 277 277 277 278 278 278 278
283 283 283 281 281 280 279 278 278 277 276 275 275 274 273 272 272 271 270 270 269 268 268 269 269 270 271 271 272 273 273 273 274 275 276 276 276 277 277 277 277 277 277
281 281 282 281 280 280 279 278 277 277 276 275 274 273 272 272 271 271 270 269 268 268 268 268 269 269 270 271 272 272 273 273 273 274 275 276 276 276 276 276 276 276 276
281 282 282 281 280 280 279 278 277 276 276 275 274 273 272 272 271 271 270 269 268 268 268 268 268 268 269 270 271 272 273 273 273 273 274 275 275 276 276 276 275 275 275
281 281 282 281 281 280 279 278 277 276 275 275 274 273 272 272 271 270 270 269 269 268 268 268 268 268 268 268 269 270 271 272 273 273 273 273 274 274 275 275 275 275 275
281 282 282 282 281 280 279 279 278 276 275 275 274 273 272 271 271 270 270 270 270 269 268 268 268 268 268 268 268 268 269 270 271 271 272 272 272 272 273 273 273 273 273

GFSGL_925_thetae_021.txt.gz
Theta_e
304 301 301 300 298 297 295 295 295 296 297 297 295 295 294 294 294 293 293 294 293 293 292 291 291 290 290 289 289 289 289 289 291 289 289 289 289 289 289 289 290 290 290
302 301 300 298 298 295 294 294 295 294 294 294 293 293 292 292 293 292 291 290 290 289 289 289 288 288 288 288 288 288 288 288 288 289 288 288 288 288 288 288 289 288 289
300 300 299 297 296 294 294 294 294 293 294 293 292 292 293 292 290 288 287 288 288 287 287 287 287 287 286 286 286 286 286 286 286 286 287 287 287 287 287 287 288 288 288
299 299 298 296 295 295 294 294 294 294 293 293 292 291 288 287 287 287 287 287 286 286 286 285 285 285 285 284 284 284 284 285 285 285 286 286 286 286 286 287 287 287 288
299 298 297 296 296 295 294 294 294 294 293 293 293 289 286 286 285 285 285 286 285 285 285 285 284 284 284 283 284 284 285 285 285 285 285 285 286 286 286 286 286 287 287
297 297 297 297 296 295 294 294 294 294 293 289 286 285 285 285 284 283 283 284 284 283 283 283 283 283 283 283 283 283 283 284 284 285 285 285 285 285 285 286 286 286 288
296 296 295 293 294 293 292 289 288 287 286 286 285 285 285 284 283 282 282 282 283 283 283 283 283 283 283 283 283 282 282 283 283 283 284 284 284 285 285 285 285 286 286
294 294 292 290 289 288 288 287 287 286 285 285 284 284 283 283 281 281 282 282 282 282 282 282 282 283 282 282 283 283 283 284 284 284 284 284 284 284 284 285 285 285 285
291 290 290 288 288 287 287 286 285 285 284 284 283 283 282 282 281 280 281 282 282 282 282 282 282 282 282 283 283 284 284 284 284 284 283 284 284 284 284 284 285 285 287
291 290 290 287 286 286 285 285 284 284 283 283 282 281 281 281 280 280 281 281 282 282 282 282 283 282 282 283 283 283 283 283 283 283 283 283 284 284 284 285 285 286 286
291 289 287 287 286 285 284 283 283 283 282 281 281 281 280 280 280 280 280 281 281 282 282 282 283 283 282 282 281 282 282 282 282 283 283 284 285 285 285 285 285 285 286
289 287 287 286 284 284 283 283 282 282 282 281 281 281 280 280 279 279 279 280 280 281 282 282 283 281 280 280 280 280 280 281 283 284 284 285 285 285 285 285 285 285 285
287 287 285 285 284 283 283 283 282 282 281 281 281 280 280 280 279 279 279 280 280 280 281 281 280 279 278 279 279 279 280 281 282 283 285 285 285 285 285 285 285 285 285
287 286 285 285 284 284 283 282 282 282 281 281 280 280 279 279 279 279 279 279 279 280 279 280 278 277 277 278 279 279 280 280 280 282 284 284 285 285 285 286 286 286 286
286 285 285 284 283 283 282 282 282 281 280 280 279 279 279 278 278 279 278 278 279 278 278 278 277 277 277 278 278 278 279 280 280 281 282 284 285 285 285 285 285 286 286
285 285 284 283 283 282 281 281 280 280 279 278 278 278 277 277 278 278 277 277 276 276 277 276 276 276 276 277 277 277 278 279 279 279 281 282 284 285 285 285 284 285 286
284 284 283 283 282 282 281 281 280 279 278 278 277 276 276 276 277 276 275 275 274 275 275 275 275 274 275 276 276 276 276 277 278 278 279 280 282 284 285 285 285 286 286
284 283 283 282 282 281 281 280 279 279 278 277 276 275 274 275 275 275 274 273 274 273 273 274 273 273 273 274 274 275 275 276 277 277 278 278 279 282 283 284 285 285 286
284 283 282 282 282 281 280 280 279 278 278 277 276 275 274 274 273 273 272 272 272 272 272 272 272 272 272 272 273 273 274 275 276 277 277 277 278 280 281 281 282 283 284
283 283 282 282 281 281 280 279 278 278 277 276 276 274 274 274 273 273 272 271 271 271 270 271 270 271 271 271 272 272 274 275 275 276 276 277 277 278 279 280 280 282 282
283 283 282 282 281 280 279 279 278 277 277 276 275 273 273 273 273 272 272 271 270 269 269 269 269 269 270 270 271 271 272 273 273 274 275 276 276 277 278 279 280 280 281
282 281 281 281 281 280 279 278 277 276 276 275 275 274 273 272 272 272 271 269 269 268 268 268 268 268 268 268 269 270 271 271 272 272 273 275 276 277 278 278 278 279 279
281 281 281 281 280 280 279 278 277 276 276 275 274 273 273 272 272 271 271 269 268 268 267 268 267 267 268 269 269 270 269 270 271 271 272 274 275 275 277 277 277 277 277
281 281 281 281 280 280 278 278 277 277 275 275 274 273 273 272 271 271 270 269 269 268 268 267 268 268 268 268 268 270 271 271 272 272 272 272 273 274 275 275 276 275 276
281 281 281 281 281 280 279 278 277 277 276 275 274 273 272 272 271 271 270 270 269 269 268 268 267 267 268 268 268 268 269 270 271 271 271 271 272 272 272 273 273 274 274
281 281 281 281 281 280 279 278 278 277 276 275 274 273 273 272 271 270 270 270 270 269 268 267 267 267 267 267 267 268 268 268 269 269 270 270 270 271 271 271 271 273 272

GFSGL_925_thetae_024.txt.gz
Theta_e
307 305 305 304 302 300 299 298 299 299 298 296 295 294 294 293 293 294 294 294 294 293 293 292 292 292 291 291 291 291 291 291 292 291 291 291 291 291 291 291 291 291 292
303 303 303 302 300 299 298 297 297 297 296 294 294 293 294 294 294 294 293 292 291 291 291 290 290 289 289 290 290 290 290 290 290 291 290 290 291 291 291 291 291 291 291
300 301 301 300 299 298 298 296 296 295 296 295 295 295 293 292 292 291 290 290 290 290 289 289 289 289 289 289 288 288 288 288 288 289 289 289 289 289 289 289 289 290 290
300 300 299 299 298 298 297 296 296 296 295 295 294 294 293 291 290 289 289 288 288 288 288 288 288 288 287 287 287 287 287 287 287 288 288 288 288 289 289 289 290 290 290
299 298 298 299 297 296 295 294 295 295 294 293 292 291 290 289 288 286 286 286 287 287 286 286 286 286 285 285 285 285 286 287 287 287 287 287 287 288 288 288 288 288 289
298 297 297 296 296 296 295 294 292 291 290 290 289 289 288 288 286 284 283 284 285 285 286 286 285 285 285 285 284 284 283 284 285 285 286 286 287 287 287 287 288 288 290
297 296 295 294 293 292 291 291 290 290 289 288 288 288 287 287 285 283 282 283 284 285 285 285 285 285 284 284 284 284 283 283 283 284 284 285 285 286 286 286 287 287 288
295 295 293 292 291 291 290 290 289 288 288 288 287 287 286 285 283 282 281 282 284 284 284 284 284 284 284 283 283 284 284 284 285 285 285 285 285 285 285 286 286 287 287
294 293 293 292 291 290 290 289 288 287 287 287 286 285 285 284 283 281 281 282 283 283 283 283 283 284 284 284 284 284 284 285 285 284 284 284 284 284 284 285 287 287 288
293 293 292 291 290 290 288 287 287 286 286 285 285 284 284 283 282 281 280 281 282 282 282 283 283 283 283 283 283 284 284 284 284 284 284 285 284 284 284 285 285 287 287
292 292 291 290 289 287 287 287 286 286 285 284 283 283 283 282 281 281 280 280 281 281 282 283 283 284 282 281 281 282 282 282 282 283 284 286 286 286 286 286 286 286 287
292 291 290 289 288 287 287 286 286 286 285 284 283 283 283 282 281 281 280 280 281 281 281 283 283 282 280 280 280 281 280 280 283 284 286 287 287 287 287 287 287 287 287
291 290 289 288 287 287 287 286 285 285 284 283 283 282 282 281 281 280 280 280 280 280 281 281 280 279 279 280 280 279 280 282 283 284 285 286 287 286 286 286 287 287 287
290 289 288 288 287 287 286 286 285 284 283 282 282 281 281 280 280 279 280 279 279 281 280 281 279 279 280 280 281 281 282 282 282 283 284 285 286 287 286 287 287 287 287
289 288 288 287 287 286 285 284 283 283 281 280 280 280 280 279 279 278 278 278 278 278 278 280 279 279 280 280 280 280 281 281 282 282 283 284 286 287 287 286 286 287 288
288 288 287 286 287 285 285 284 283 281 279 278 278 277 278 277 277 277 277 276 276 276 278 278 278 278 279 279 279 279 280 280 280 281 282 283 284 286 286 287 286 286 287
287 287 286 286 285 285 284 283 283 282 280 279 278 276 276 276 276 276 276 275 275 276 277 277 277 276 277 278 278 278 279 279 279 280 281 281 282 283 285 286 287 288 288
285 285 285 285 284 284 283 283 282 282 281 281 279 277 275 275 275 275 274 276 276 275 275 275 275 275 275 276 277 277 277 278 278 279 280 280 281 282 283 284 284 285 287
285 285 284 284 284 283 283 282 282 281 280 280 279 278 276 275 275 275 274 275 275 275 274 274 274 274 275 275 275 276 277 277 278 278 279 279 280 281 282 282 283 284 284
284 283 283 283 283 283 282 282 281 281 280 280 279 277 276 276 276 275 274 274 274 273 273 273 273 273 274 274 275 275 276 277 277 277 278 279 279 280 281 281 282 283 283
284 284 283 283 283 283 282 281 281 280 280 279 279 277 273 275 275 274 274 273 272 272 271 272 272 272 272 273 273 274 275 275 276 276 277 278 279 280 280 281 281 282 282
283 282 283 283 283 282 282 281 280 280 279 279 278 277 274 275 275 274 273 272 271 271 270 271 271 271 271 271 272 272 273 274 274 274 275 277 278 279 279 280 280 281 281
283 282 282 282 282 282 282 281 281 280 280 279 278 277 276 275 274 274 273 272 271 271 270 270 270 270 270 270 271 271 271 271 272 273 273 275 277 277 278 279 279 279 279
282 283 282 282 283 282 282 281 281 280 279 279 278 277 276 275 274 274 273 273 271 271 270 269 269 269 269 269 269 269 269 269 270 271 272 274 275 275 276 277 278 278 278
283 283 283 283 283 283 282 282 281 280 280 279 278 277 276 275 274 273 273 273 272 271 270 269 268 268 268 268 268 268 268 268 269 270 272 273 273 274 274 275 275 277 277
283 282 283 283 283 283 283 282 282 281 280 279 278 277 276 275 274 273 273 272 272 271 270 269 269 268 268 268 267 267 268 268 268 269 271 272 272 272 273 273 274 275 275

GFSGL_925_thetae_027.txt.gz
Theta_e
304 303 303 303 303 302 301 300 300 299 298 298 297 296 295 296 295 295 295 295 294 294 293 294 293 293 292 292 292 293 293 293 294 293 292 292 292 293 293 293 293 293 293
300 300 301 301 301 301 300 298 298 298 297 297 296 296 296 296 294 294 294 293 292 292 292 292 291 290 290 290 290 291 291 291 292 293 292 292 292 292 292 292 292 292 292
300 300 300 300 300 299 299 298 297 297 297 297 296 296 295 294 293 293 292 292 291 290 290 290 290 290 290 290 290 290 290 290 290 290 291 290 290 290 291 291 291 291 291
300 299 299 299 300 299 298 296 297 297 296 295 295 294 293 291 291 290 290 289 288 288 288 289 289 289 289 289 289 289 289 288 288 289 290 290 290 290 290 291 291 291 291
299 299 298 297 298 297 297 296 296 295 293 292 292 291 290 290 289 288 288 287 286 287 287 287 288 288 287 286 286 286 286 287 287 288 289 290 289 289 289 289 290 290 290
299 298 297 296 295 295 294 294 293 292 292 291 290 290 290 289 287 286 285 285 284 285 286 287 287 287 287 286 286 285 285 285 285 285 286 287 287 288 288 288 289 289 291
298 297 296 295 295 294 293 293 292 291 290 290 289 289 289 288 286 285 284 284 283 285 286 286 286 287 286 286 286 285 285 284 284 284 284 285 286 286 286 287 287 288 289
297 296 295 295 294 293 292 291 291 289 289 289 288 288 287 287 286 284 282 283 284 284 285 285 285 285 285 284 284 285 285 285 286 285 285 285 286 286 287 287 287 287 288
295 295 294 294 293 292 291 290 289 289 288 288 287 287 286 286 285 283 282 282 282 283 283 284 284 284 284 284 284 285 284 285 285 285 285 285 285 284 284 285 286 286 288
294 294 293 293 292 291 290 289 289 288 288 287 287 285 284 284 284 283 282 281 281 282 282 282 283 283 283 284 284 284 284 284 285 284 284 284 285 285 286 285 285 286 286
295 294 293 292 291 290 289 289 288 288 287 287 285 285 284 285 284 283 282 281 281 282 282 282 283 284 282 281 281 282 282 283 282 283 283 284 286 287 287 287 286 286 286
295 294 293 292 291 289 289 288 288 287 287 286 285 284 284 283 283 282 281 280 281 281 281 282 283 281 281 280 280 281 281 281 282 283 285 286 287 288 288 288 288 288 287
294 293 292 291 290 289 288 288 287 287 286 285 284 284 284 283 282 282 280 280 280 280 280 281 280 281 280 280 281 280 280 282 284 284 285 285 286 287 287 287 287 287 287
293 292 291 290 289 288 288 287 287 286 285 284 283 283 282 281 281 280 279 279 279 279 279 279 281 280 280 281 282 282 282 283 283 284 285 285 286 287 288 288 287 288 288
292 291 290 289 288 288 287 286 286 285 283 282 281 280 280 280 279 277 278 278 277 277 277 280 280 280 280 281 281 282 282 282 283 283 284 285 285 286 288 288 287 287 287
290 290 289 288 288 287 286 286 285 284 283 281 279 278 278 277 277 277 277 277 277 276 278 279 279 278 278 279 280 280 281 281 281 282 282 283 284 284 285 286 288 288 288
288 288 288 287 287 286 286 285 284 284 283 282 280 278 277 276 276 276 276 276 277 277 278 278 278 277 277 278 279 279 279 280 280 280 281 282 282 283 284 285 285 286 288
287 287 286 286 286 285 285 284 284 283 283 283 281 280 277 277 276 276 275 277 277 277 276 276 276 276 277 277 277 277 278 279 279 280 281 281 281 282 284 284 284 285 285
287 286 285 285 285 284 284 284 284 283 283 282 282 281 279 277 277 277 276 276 276 276 275 275 275 275 275 276 276 277 277 278 278 279 280 280 281 282 282 283 283 284 285
286 285 284 284 284 285 284 284 283 283 282 282 281 281 278 276 278 277 276 275 275 274 274 274 274 274 275 275 275 275 276 277 277 277 278 279 280 281 282 282 283 283 284
285 285 284 284 284 285 284 283 283 282 282 282 281 279 276 275 278 277 276 275 274 273 273 273 274 274 274 274 274 274 275 275 275 276 276 278 279 280 281 281 282 282 283
284 283 283 284 284 284 284 283 282 282 282 282 281 280 277 278 277 277 276 275 274 273 272 272 273 272 272 272 273 273 273 273 273 274 274 276 278 278 279 280 280 281 281
284 284 284 284 284 284 283 284 283 283 282 282 281 280 279 278 277 276 276 275 274 273 272 271 271 271 271 271 272 271 271 270 271 271 273 275 276 277 278 279 279 279 280
283 284 284 284 284 284 284 284 284 283 282 281 281 280 279 278 277 276 276 275 274 273 272 271 271 270 270 270 270 270 269 268 269 269 272 274 275 275 276 277 277 278 278
284 284 284 284 284 284 284 284 284 283 283 282 281 280 279 278 277 276 276 275 274 273 272 271 271 270 270 270 268 268 268 268 268 269 271 273 273 274 274 275 275 277 277
284 284 284 284 284 284 284 284 284 283 283 282 281 280 279 278 277 276 275 274 274 273 272 271 270 270 270 270 269 268 268 268 268 269 270 272 272 272 272 274 273 275 275

GFSGL_925_thetae_033.txt.gz
Theta_e
300 300 300 300 300 300 300 299 299 298 298 297 297 297 296 296 295 295 294 294 294 293 292 291 290 289 289 289 290 290 290 291 292 292 292 291 291 291 292 292 292 292 292
299 300 300 299 300 300 298 298 298 296 296 297 296 295 294 294 293 293 292 291 291 290 289 288 287 287 287 288 288 289 289 289 289 288 288 289 289 289 289 289 289 290 292
299 299 299 299 300 299 297 297 296 296 296 295 295 293 292 291 290 290 290 289 288 288 287 286 286 285 285 286 287 288 288 288 288 286 286 286 287 287 288 289 289 289 289
299 298 298 299 299 297 297 295 295 295 294 293 293 292 290 290 290 288 287 287 286 285 285 285 284 284 285 286 287 287 287 287 287 286 286 286 286 286 287 287 288 289 288
298 298 298 299 297 296 295 295 295 294 293 292 291 290 289 289 288 287 286 286 285 284 283 283 284 284 286 286 286 286 287 286 286 285 285 285 284 284 284 285 285 286 287
298 298 297 297 297 296 295 295 294 293 292 290 289 289 288 288 287 286 286 285 284 282 281 282 282 283 284 284 284 284 284 285 285 284 284 284 284 284 284 285 285 285 285
299 298 297 297 296 295 295 294 293 292 290 289 289 288 288 287 286 284 284 284 284 283 282 281 281 281 282 282 283 283 283 284 284 284 284 284 284 284 284 284 284 284 285
298 298 297 296 295 294 293 294 292 290 289 289 288 288 287 286 285 284 284 284 283 283 282 281 281 281 282 282 282 283 283 283 283 284 284 285 285 285 285 284 285 285 286
296 296 296 296 295 293 293 291 291 289 289 288 288 287 285 284 284 284 283 284 283 282 281 280 280 280 281 282 282 281 281 281 282 284 284 284 283 284 285 285 285 285 284
295 296 296 295 294 292 292 291 289 289 288 288 287 285 284 284 284 283 283 282 280 280 280 279 280 280 281 281 281 282 281 281 281 281 281 281 282 282 282 283 284 284 284
293 294 294 294 293 292 291 290 289 288 287 286 286 284 283 283 282 282 281 280 279 279 279 279 279 279 280 280 281 281 281 281 281 281 281 281 281 283 284 285 286 285 285
292 293 294 293 292 291 290 289 288 287 286 285 284 283 283 282 280 280 279 278 278 278 278 278 278 278 280 280 280 281 282 282 282 281 281 282 282 284 285 285 286 287 287
292 292 292 292 291 290 289 288 287 286 285 285 284 283 282 281 280 278 277 277 277 277 277 278 278 279 279 279 279 280 281 282 282 282 283 283 283 284 285 286 286 288 287
291 291 290 290 289 289 288 287 286 286 285 284 284 283 281 280 279 278 277 277 277 277 278 278 278 277 277 278 278 278 279 279 280 280 281 282 282 282 283 284 285 285 287
290 289 288 289 288 287 287 286 285 285 284 284 283 282 281 280 278 278 278 278 278 278 278 277 277 276 277 277 277 277 278 278 279 279 280 281 281 282 282 283 283 284 285
289 288 287 288 287 287 286 286 285 284 283 283 283 283 282 280 278 278 278 278 277 278 276 276 276 276 276 276 276 276 277 278 278 278 279 280 280 281 282 283 283 283 284
288 287 287 286 286 285 285 284 284 283 284 283 283 283 282 280 279 278 278 277 276 276 275 275 275 275 275 275 275 275 276 277 276 277 277 278 279 280 282 282 282 283 283
288 286 286 285 284 284 284 284 283 284 283 283 282 283 281 279 278 278 278 276 275 274 274 274 274 274 274 274 274 274 274 275 275 275 276 276 277 279 280 281 282 282 283
286 286 285 284 283 283 283 283 284 284 283 283 282 282 281 279 277 277 277 276 275 274 273 273 274 273 273 273 273 273 273 273 273 273 274 275 276 278 278 280 280 281 281
286 286 285 284 283 283 283 284 284 283 283 282 282 282 281 280 278 278 277 276 275 274 273 272 272 272 272 272 272 272 271 270 271 271 272 274 275 275 276 278 279 279 280
285 284 284 283 283 283 283 284 284 283 282 282 282 282 281 280 279 278 277 276 275 274 273 272 271 271 271 271 271 271 271 269 269 270 271 273 274 274 275 276 277 278 278
283 283 283 283 283 283 283 284 283 283 283 283 283 282 281 280 279 278 277 276 275 274 274 273 271 271 271 270 270 270 269 268 268 268 271 272 273 273 274 274 275 276 276
283 283 283 283 283 283 283 283 284 284 284 283 283 282 282 281 280 279 277 277 275 274 274 273 272 271 271 270 270 269 268 268 268 268 270 272 272 272 273 273 274 275 274
283 283 283 283 283 284 284 284 284 284 284 284 283 283 282 281 280 279 278 277 276 275 274 273 272 271 270 270 270 270 268 268 268 269 270 271 271 271 272 272 273 273 273
283 283 283 284 283 283 283 283 284 284 284 283 283 283 282 282 280 279 278 277 276 275 274 273 272 271 270 270 270 270 269 268 268 270 270 270 270 270 270 271 271 271 272
284 283 282 283 284 283 283 283 283 283 283 284 283 282 281 281 281 279 278 277 276 275 274 273 272 271 270 270 270 269 269 268 268 269 270 269 269 270 270 269 270 270 270

GFSGL_925_thetae_036.txt.gz
Theta_e
300 299 300 300 299 299 299 299 297 295 295 295 296 296 295 294 293 293 292 292 291 291 289 288 287 288 287 286 287 287 287 289 289 289 289 289 289 288 289 289 289 289 292
299 299 299 299 299 299 299 299 296 294 294 295 294 294 293 292 290 290 290 289 288 287 287 286 286 286 285 285 285 285 287 287 288 287 287 287 286 287 287 287 288 289 289
299 299 299 298 298 299 299 297 295 295 295 294 293 292 292 290 289 289 288 287 286 286 285 285 284 284 284 284 284 285 286 287 287 286 286 285 286 286 285 285 287 288 289
299 299 298 298 297 299 297 296 295 295 294 293 292 290 289 289 289 288 287 286 286 285 284 283 282 283 283 284 285 286 286 286 286 285 285 285 285 285 285 284 284 284 286
300 299 298 298 297 297 297 296 295 294 294 293 291 289 289 288 288 287 286 284 284 283 283 282 281 281 282 283 284 284 284 284 284 284 284 284 284 284 284 284 284 284 284
298 298 299 298 297 297 296 295 295 293 292 290 289 289 288 287 286 285 284 284 284 284 283 282 282 281 281 281 282 283 282 283 284 284 284 284 284 283 283 284 284 283 281
295 296 296 295 296 295 294 294 293 292 290 289 289 288 287 286 285 284 284 284 284 283 283 282 282 281 280 280 281 281 282 282 283 283 284 284 283 284 284 284 283 283 283
295 296 295 295 295 295 294 292 290 290 289 289 288 287 286 284 284 284 283 283 283 282 281 280 280 279 280 280 281 282 282 281 282 282 283 283 284 284 284 284 284 284 284
294 293 292 294 294 294 293 292 292 292 289 288 287 285 284 283 284 283 283 282 281 279 279 279 279 279 279 280 281 280 281 281 281 281 281 282 283 284 284 284 284 285 285
292 292 292 293 293 293 292 292 291 288 288 287 285 284 283 283 282 282 281 280 278 278 278 278 278 278 279 280 280 281 281 281 281 281 281 281 281 281 281 282 282 282 283
292 292 291 292 292 292 291 289 288 288 287 286 284 283 283 282 280 280 279 278 278 278 277 277 277 278 279 280 280 280 281 282 282 282 282 281 281 282 283 283 284 284 284
292 291 291 291 291 291 289 289 288 287 286 285 284 283 282 281 280 279 278 278 278 277 277 277 278 279 279 279 279 280 280 281 281 282 281 281 282 283 284 284 285 285 285
291 290 289 290 289 289 288 287 286 285 285 284 284 283 282 281 280 279 278 278 277 277 278 278 278 277 277 277 278 278 279 279 280 280 281 281 282 282 283 284 285 285 287
291 289 288 288 288 287 287 286 285 285 284 283 283 283 282 281 280 278 278 278 278 278 277 277 276 276 276 276 276 277 277 278 279 279 280 280 281 281 282 283 283 285 285
290 289 287 287 288 287 286 285 285 284 283 283 283 283 282 281 280 279 279 278 277 277 276 275 275 275 275 276 275 276 276 277 277 278 278 279 280 281 281 283 283 283 284
289 288 287 287 286 285 284 284 284 283 283 283 283 283 283 281 279 279 279 278 276 276 275 275 274 274 275 275 275 275 275 276 276 276 277 277 278 279 281 282 282 283 283
287 287 286 286 285 284 283 283 283 283 283 282 282 282 282 281 279 279 278 276 275 274 273 274 274 274 274 274 273 274 274 274 274 274 275 275 276 278 279 281 281 282 282
286 286 286 285 283 283 283 283 283 284 283 282 282 282 281 280 278 278 277 276 275 274 273 273 273 273 272 273 272 272 272 271 272 273 274 274 275 276 277 279 279 280 280
286 286 286 284 283 283 283 283 283 284 283 282 282 282 282 280 278 277 277 276 275 274 273 272 272 272 272 271 271 271 271 269 270 271 272 273 274 274 276 277 278 278 279
285 285 285 283 283 282 283 283 284 284 283 282 282 282 282 281 279 278 277 276 275 274 273 272 271 271 271 270 271 270 270 269 269 270 272 272 273 274 274 275 276 276 277
284 284 283 283 282 282 282 282 283 283 282 282 283 283 282 281 280 279 278 277 275 274 274 273 272 271 271 270 270 269 269 268 268 269 271 272 272 272 273 274 275 275 275
283 283 283 283 282 282 283 283 283 283 283 283 283 283 282 281 280 280 279 277 276 275 274 273 272 271 271 270 270 270 269 268 268 268 270 271 271 271 273 273 274 274 274
283 283 282 282 282 282 283 283 283 283 283 283 284 283 283 282 281 280 279 278 276 275 274 274 273 271 270 270 270 270 269 268 268 269 270 270 271 270 272 272 272 273 273
285 284 283 283 283 283 283 282 282 283 283 283 283 283 283 282 282 281 279 278 277 276 275 274 273 272 270 270 270 270 269 268 268 270 270 269 270 270 271 271 271 272 272
285 284 284 283 283 283 284 283 283 283 282 283 283 283 282 281 282 281 279 278 277 276 275 274 273 272 271 270 270 270 269 268 268 269 270 269 269 270 269 269 270 271 271
286 285 284 284 282 282 283 283 283 282 282 282 282 283 283 282 281 280 280 278 277 276 275 274 273 272 271 270 270 269 269 269 268 269 269 269 268 269 270 269 269 270 270

GFSGL_925_thetae_039.txt.gz
Theta_e
300 300 299 299 299 299 299 299 299 297 295 294 294 295 295 293 292 291 291 290 290 289 288 287 286 286 286 286 286 285 284 285 286 286 287 288 288 288 288 287 287 287 288
300 300 300 299 298 298 298 299 299 297 294 294 294 294 294 292 291 290 289 289 288 287 286 286 286 285 284 284 283 284 284 285 285 285 286 287 287 286 286 286 285 286 288
299 299 299 298 297 297 297 298 298 296 295 295 294 293 292 290 289 289 288 287 286 286 285 284 283 282 282 282 283 284 284 285 285 285 285 285 285 285 285 285 285 285 284
299 298 298 298 297 297 297 297 297 296 295 295 293 292 291 289 288 288 287 286 285 284 283 283 282 281 281 282 282 283 283 284 284 284 284 284 284 285 285 284 284 284 283
294 295 296 295 294 294 295 296 296 295 294 293 292 292 289 288 288 287 286 285 284 284 283 283 282 282 282 282 281 281 282 283 283 283 283 283 283 284 284 284 283 283 283
294 295 294 294 293 294 294 295 295 293 293 292 291 288 288 287 286 285 284 284 284 284 283 283 282 282 281 281 280 281 281 282 282 282 282 283 283 283 283 283 283 283 281
294 295 295 293 293 293 293 294 294 293 292 290 288 289 286 286 285 284 284 284 283 283 282 281 280 280 279 279 279 280 280 281 282 282 282 282 283 283 283 283 283 283 282
294 294 292 292 292 292 293 293 292 291 290 290 288 286 285 284 284 283 283 282 281 280 279 279 278 278 278 279 279 280 280 280 280 281 281 281 282 283 283 283 283 283 282
293 292 292 291 292 293 293 292 291 291 290 287 286 285 284 283 282 282 281 280 278 277 278 277 278 277 278 279 279 280 280 281 281 281 281 281 281 282 282 284 283 283 283
292 292 292 291 291 292 292 291 291 289 287 287 285 284 283 282 281 281 280 278 277 278 277 277 277 278 279 280 280 280 280 280 281 281 281 281 281 281 281 281 282 282 282
292 292 291 291 290 291 291 289 287 287 288 286 284 283 283 281 280 280 279 278 278 277 277 277 278 278 279 279 279 279 280 280 280 281 281 282 282 281 282 282 281 281 281
291 291 290 289 289 289 289 288 289 288 285 285 284 283 282 281 280 279 279 278 278 278 277 277 278 278 278 278 278 278 278 279 279 280 281 281 282 282 283 283 284 284 284
291 291 289 288 288 288 287 286 286 285 285 284 283 283 282 281 280 279 278 279 278 277 277 277 277 276 276 276 277 277 277 278 278 279 279 280 281 281 282 283 284 285 285
289 289 289 287 287 287 287 286 285 284 283 283 283 282 282 282 280 279 279 278 277 277 275 275 275 275 275 275 275 276 276 277 277 277 278 279 280 281 281 282 283 284 285
287 287 288 286 287 286 285 284 284 284 283 283 283 283 283 282 281 279 280 278 276 276 275 274 274 274 274 274 274 274 275 275 275 275 276 276 277 279 280 282 282 283 284
287 287 286 286 286 284 284 283 283 283 283 283 283 282 282 281 280 279 279 277 276 275 273 274 273 273 273 273 273 273 273 273 273 274 274 275 275 277 279 280 281 282 282
287 286 286 285 284 283 283 283 283 282 283 282 282 282 282 281 280 279 278 276 275 274 272 272 273 272 272 272 272 272 271 270 271 273 273 274 275 276 277 278 279 280 280
286 286 286 286 284 283 282 282 282 283 283 282 282 282 282 281 280 278 277 276 275 274 273 272 272 272 271 271 271 271 270 269 270 272 272 273 274 274 275 276 277 278 278
285 285 285 285 283 283 282 282 282 283 283 282 282 282 282 281 280 278 277 277 276 274 273 272 271 271 271 270 271 270 269 268 269 271 272 272 273 273 274 275 275 276 276
285 284 284 284 283 283 282 282 282 283 283 282 282 282 282 282 281 280 278 277 276 275 274 273 272 271 271 270 270 269 269 268 268 270 271 271 272 272 273 273 274 274 274
284 284 283 283 283 282 282 282 282 283 283 282 283 283 282 281 281 280 279 278 277 276 274 273 273 271 271 270 270 270 269 268 268 269 270 271 271 271 272 273 273 273 274
284 284 283 282 283 282 282 282 282 283 283 283 283 283 283 282 282 281 280 279 278 276 275 274 273 272 271 270 270 270 269 268 268 269 270 270 270 270 272 272 273 273 273
284 284 283 283 282 282 282 282 282 282 283 283 283 283 283 283 282 281 281 280 278 277 276 274 273 272 271 270 270 270 269 268 268 269 270 269 270 270 271 271 271 272 272
285 284 284 284 284 283 283 283 283 282 282 283 282 283 283 283 282 282 281 280 278 277 276 275 274 273 272 270 270 270 269 268 268 269 270 269 269 270 269 270 270 270 271
286 285 285 285 284 284 283 282 282 283 283 283 282 282 282 283 282 281 281 280 279 277 276 275 274 273 272 271 270 270 269 269 268 269 269 269 269 269 270 269 270 270 269
285 286 286 286 285 284 283 283 282 282 283 282 282 282 281 282 282 282 280 280 279 278 277 275 274 273 272 271 271 270 269 269 268 268 269 269 268 269 269 269 269 269 269

GFSGL_925_thetae_042.txt.gz
Theta_e
300 300 299 299 298 298 298 298 298 298 298 297 294 294 294 295 293 292 291 290 289 289 288 287 286 286 286 285 284 284 283 283 284 284 284 285 285 286 288 287 287 287 286
299 298 299 298 298 297 296 296 297 298 298 296 294 294 294 293 292 291 289 289 288 287 286 285 285 284 283 282 282 281 282 283 283 284 284 285 285 286 287 286 286 286 285
299 297 296 295 297 296 294 294 296 297 297 296 295 294 293 293 290 289 288 287 286 285 284 284 283 283 282 281 281 281 281 282 283 284 284 284 284 285 285 285 285 285 285
294 294 295 295 294 293 293 293 293 293 296 295 294 293 293 291 289 287 286 286 285 284 284 283 283 282 282 282 282 282 281 281 281 282 282 283 283 283 284 284 284 285 284
293 293 294 294 293 292 292 292 293 294 294 293 292 292 291 288 289 287 285 285 284 284 283 283 283 282 282 282 282 281 280 280 281 281 282 282 282 283 283 283 283 283 283
293 294 294 293 292 292 292 292 293 293 292 291 290 289 288 289 286 285 284 284 284 283 283 282 281 280 280 280 280 280 280 280 281 281 281 282 282 282 282 282 282 282 283
293 293 293 292 292 291 291 292 293 291 291 290 289 288 288 286 285 284 284 283 282 280 279 278 278 279 278 278 278 279 279 280 280 281 282 281 282 282 282 282 282 282 282
292 293 292 292 291 291 291 291 291 291 290 290 289 286 285 284 283 283 282 281 280 278 277 277 278 277 277 278 279 279 280 280 280 280 280 281 281 281 281 281 282 282 283
291 291 292 291 291 291 291 291 292 290 290 289 287 285 285 283 282 281 281 280 278 277 277 277 277 277 278 279 280 279 279 279 280 281 281 282 282 282 282 282 282 283 282
289 291 291 291 291 290 290 290 290 289 287 286 285 284 283 283 281 281 280 279 278 278 277 277 277 278 278 279 279 279 279 280 279 280 281 281 281 281 281 281 281 282 282
291 291 291 291 290 288 288 289 287 287 287 287 284 284 283 282 281 280 279 279 278 278 277 277 277 277 278 278 278 277 278 278 278 279 280 281 282 282 282 282 281 281 281
288 290 290 290 289 287 287 288 287 287 286 284 284 283 283 282 281 280 279 279 279 278 277 276 276 277 277 277 277 277 277 277 277 278 278 279 280 281 281 282 283 282 282
288 287 287 287 288 287 286 285 285 285 285 284 283 283 282 282 281 280 279 279 278 276 276 275 275 275 275 275 275 276 276 276 276 277 277 278 278 280 281 282 283 284 284
287 287 286 287 286 287 286 286 285 285 284 283 283 283 282 282 282 280 279 279 277 276 275 274 274 274 274 274 274 274 274 274 274 275 275 276 277 279 280 281 282 283 284
287 287 286 286 286 285 285 284 284 284 283 283 283 283 283 282 281 280 280 279 277 276 274 273 273 273 273 273 273 273 273 271 272 273 274 275 275 277 279 280 281 282 282
285 286 285 286 285 284 283 283 282 282 282 283 283 282 282 282 281 280 279 278 276 275 273 272 273 272 272 272 272 272 271 270 271 272 273 273 274 275 277 278 279 280 280
286 286 286 286 285 284 283 282 282 282 282 283 282 282 282 281 280 280 279 277 276 275 273 272 272 272 271 271 271 271 270 269 270 271 272 273 273 275 276 276 277 277 278
285 286 285 285 285 285 283 282 282 282 282 282 282 282 281 281 281 280 278 277 277 275 274 273 272 271 271 270 271 270 270 268 269 271 271 272 273 273 274 274 275 275 276
285 285 285 284 284 283 283 282 282 282 282 283 283 282 282 282 281 280 279 278 277 276 275 273 273 271 271 270 270 269 269 268 268 270 271 271 271 272 272 273 274 274 274
285 284 284 283 283 283 283 282 282 282 282 282 282 282 282 282 281 281 280 279 278 277 276 274 273 272 271 270 270 270 269 268 268 269 270 271 270 271 271 272 273 273 273
285 284 283 284 282 282 282 282 282 282 282 282 282 282 283 282 282 281 281 280 279 278 276 275 274 273 272 271 270 270 270 268 268 268 270 270 270 270 271 272 272 272 272
285 284 284 284 283 282 282 282 282 281 282 282 282 283 283 282 282 282 281 281 280 279 277 275 274 273 272 271 270 270 270 269 268 268 270 269 270 270 270 271 271 271 272
286 285 284 284 283 283 283 282 282 282 282 282 282 282 282 283 282 282 282 281 281 279 277 276 275 274 273 271 270 270 270 269 268 268 270 269 269 269 269 270 270 270 271
284 284 284 284 284 284 284 284 283 283 283 282 282 282 282 282 282 282 282 281 281 280 278 276 275 274 273 272 270 270 270 269 268 268 269 269 269 269 270 269 270 269 270
285 284 283 283 283 283 284 284 283 283 283 282 282 283 282 282 282 282 282 281 281 280 278 277 276 275 274 272 271 270 270 269 269 268 269 269 269 268 269 269 269 269 269
285 285 284 284 283 283 283 283 283 283 283 283 282 282 282 282 281 281 281 282 281 280 279 277 276 275 274 273 272 271 270 269 269 269 268 268 268 268 269 269 269 268 268